Location: Buckeye Ditch
(40.9104°N, 122.9517°W)
Time: 13:17:30
(UTC+00:00)

Tiros 1 despin weight - Pass Details

Date: 23 May 2025
Orbit: 563 x 601 km, 48.2° (Epoch: 22 June)

Event Time Altitude Azimuth Distance (km) Brightness Sun altitude
Rises 15:05:04 0° 298° (WNW) 2,842 ? 23.8°
Reaches altitude 10° 15:07:22 10° 296° (WNW) 1,940 ? 24.3°
Maximum altitude 15:11:49 72° 212° (SSW) 633 ? 25.1°
Drops below altitude 10° 15:16:14 10° 129° (SE) 1,934 ? 25.9°
Sets 15:18:31 0° 127° (SE) 2,832 ? 26.3°
